Regional Weather Roundup
Issued by NWS

Home | Current Version | Previous Version | Text Only | Print | Product List | Glossary On
Versions: 1 2 3 4 5 6 7 8 9 10 11 12 13 14 15 16 17 18 19 20 21 22 23 24 25 26 27 28 29 30 31 32 33 34 35 36 37 38 39 40 41 42 43 44 45 46 47 48 49 50
000
ASUS45 KREV 061410
RWRNV
NEVADA REGIONAL WEATHER ROUNDUP
NATIONAL WEATHER SERVICE RENO NV
600 AM PST TUE DEC 06 2016

NOTE: "FAIR" INDICATES FEW OR NO CLOUDS BELOW 12,000 FEET WITH NO
SIGNIFICANT WEATHER AND/OR OBSTRUCTIONS TO VISIBILITY.

NVZ001-003-004-061500-
WESTERN NEVADA

CITY           SKY/WX    TMP DP  RH WIND       PRES   REMARKS
RENO           CLEAR     29  11  47 CALM      29.87R
CARSON CITY    FAIR      37   5  25 NE3       29.88S
MINDEN         FAIR      32  -2  23 N5        29.88S
PYRAMID LAKE     N/A     30 N/A N/A W5          N/A
FALLON         CLEAR     14   9  80 CALM      29.89S
LOVELOCK       CLEAR     10   7  87 CALM      29.90S
HAWTHORNE        N/A    N/A N/A N/A E8        29.87F
$$

NVZ002-CAZ072-073-061500-
NORTHERN AND CENTRAL SIERRA

CITY           SKY/WX    TMP DP  RH WIND       PRES   REMARKS
S. LAKE TAHOE  CLEAR     28   2  32 VRB3      29.89S
TRUCKEE        CLEAR     18  10  73 CALM      29.89S
SQUAW VLY 8000   N/A     19  14  79 SW16        N/A
SUSANVILLE     CLEAR     18  14  86 MISG      29.92S
MAMMOTH LAKES  FAIR      36   9  32 W23G35    29.88R
BRIDGEPORT       N/A     31  -7  19 W8        29.85R
$$

NVZ030-031-036-061500-
NORTHERN NEVADA

CITY           SKY/WX    TMP DP  RH WIND       PRES   REMARKS
ELKO           CLOUDY    17  11  77 CALM      29.83S
WINNEMUCCA     CLEAR      9   6  88 SE9       29.87F
WENDOVER       CLEAR     14   1  57 NE6       29.87F
$$

NVZ035-037-061500-
CENTRAL NEVADA

CITY           SKY/WX    TMP DP  RH WIND       PRES   REMARKS
ELY            PTCLDY     5   0  79 S14       29.81S WCI -12
EUREKA           N/A      5  -1  76 CALM      29.82R
$$

NVZ013-014-061500-
SOUTH CENTRAL NEVADA

CITY           SKY/WX    TMP DP  RH WIND       PRES   REMARKS
TONOPAH        CLEAR     23   9  55 N9        29.86R
$$

NVZ017-020-022-061500-
SOUTHERN NEVADA

CITY           SKY/WX    TMP DP  RH WIND       PRES   REMARKS
LAS VEGAS      PTCLDY    46  19  34 CALM      29.82S
N. LAS VEGAS   PTCLDY    41  17  38 N8        29.82S
NELLIS AFB     PTCLDY    40  20  43 CALM      29.83R
HENDERSON      PTCLDY    40  20  44 S6        29.84R
MERCURY        CLEAR     30  14  51 SE5       29.83R
$$



USA.gov is the U.S. government's official web portal to all federal, state and local government web resources and services.